Location: Unspecified
(50.7693°N, 0.0000°E)
Time: 03:12:44
(UTC+00:00)

Transit 2A - Pass Details

Date: 01 July 2019
Orbit: 594 x 964 km, 66.7° (Epoch: 21 July)

Event Time Altitude Azimuth Distance (km) Brightness Sun altitude
Rises 03:59:37 0° 315° (NW) 3,554 9.4 0.2°
Reaches altitude 10° 04:02:55 10° 331° (NNW) 2,554 8.8 0.7°
Maximum altitude 04:07:16 21° 19° (NNE) 1,822 8.9 1.2°
Drops below altitude 10° 04:11:21 10° 67° (ENE) 2,367 10.5 1.7°
Sets 04:14:16 0° 84° (E) 3,221 10.5 2.1°
